Time,TemperatureF,DewpointF,PressureIn,WindDirection,WindDirectionDegrees,WindSpeedMPH,WindSpeedGustMPH,Humidity,HourlyPrecipIn,Conditions,Clouds,dailyrainin,SoftwareType,DateUTC
2013-02-25 00:01:00,24.0,18.0,30.09,WSW,240,0.0,1.0,77,0.00,,,0.00,,2013-02-25 05:01:00,
2013-02-25 00:11:00,24.0,18.0,30.09,WSW,240,0.0,1.0,77,0.00,,,0.00,,2013-02-25 05:11:00,
2013-02-25 00:22:00,24.0,18.0,30.09,WSW,240,0.0,1.0,77,0.00,,,0.00,,2013-02-25 05:22:00,
2013-02-25 00:32:00,25.0,19.0,30.09,WSW,240,0.0,0.0,78,0.00,,,0.00,,2013-02-25 05:32:00,
2013-02-25 00:42:00,25.0,19.0,30.09,WSW,240,0.0,0.0,78,0.00,,,0.00,,2013-02-25 05:42:00,
2013-02-25 00:52:00,24.0,19.0,30.09,WSW,240,0.0,1.0,80,0.00,,,0.00,,2013-02-25 05:52:00,
2013-02-25 01:02:00,24.0,19.0,30.10,WSW,240,0.0,0.0,80,0.00,,,0.00,,2013-02-25 06:02:00,
2013-02-25 01:11:00,24.0,19.0,30.10,WSW,240,0.0,0.0,80,0.00,,,0.00,,2013-02-25 06:11:00,
2013-02-25 01:21:00,23.0,18.0,30.10,WSW,240,0.0,0.0,80,0.00,,,0.00,,2013-02-25 06:21:00,
2013-02-25 01:32:00,23.0,18.0,30.08,WSW,240,0.0,1.0,81,0.00,,,0.00,,2013-02-25 06:32:00,
2013-02-25 01:42:00,23.0,18.0,30.08,WSW,240,0.0,1.0,81,0.00,,,0.00,,2013-02-25 06:42:00,
2013-02-25 01:52:00,23.0,18.0,30.08,WSW,240,0.0,0.0,81,0.00,,,0.00,,2013-02-25 06:52:00,
2013-02-25 02:01:00,23.0,18.0,30.08,WSW,240,0.0,2.0,81,0.00,,,0.00,,2013-02-25 07:01:00,
2013-02-25 02:11:00,23.0,18.0,30.08,WSW,240,0.0,1.0,81,0.00,,,0.00,,2013-02-25 07:11:00,
2013-02-25 02:21:00,23.0,18.0,30.08,WSW,240,0.0,1.0,81,0.00,,,0.00,,2013-02-25 07:21:00,
2013-02-25 02:32:00,22.0,17.0,30.08,WSW,240,0.0,2.0,81,0.00,,,0.00,,2013-02-25 07:32:00,
2013-02-25 02:42:00,22.0,17.0,30.08,WSW,240,0.0,2.0,81,0.00,,,0.00,,2013-02-25 07:42:00,
2013-02-25 02:52:00,22.0,18.0,30.08,WSW,240,1.0,2.0,83,0.00,,,0.00,,2013-02-25 07:52:00,
2013-02-25 03:01:00,22.0,18.0,30.07,WSW,240,0.0,1.0,83,0.00,,,0.00,,2013-02-25 08:01:00,
2013-02-25 03:11:00,22.0,18.0,30.07,WSW,240,0.0,1.0,83,0.00,,,0.00,,2013-02-25 08:11:00,
2013-02-25 03:21:00,22.0,18.0,30.08,WSW,240,0.0,1.0,83,0.00,,,0.00,,2013-02-25 08:21:00,
2013-02-25 03:32:00,23.0,19.0,30.08,WSW,240,0.0,1.0,83,0.00,,,0.00,,2013-02-25 08:32:00,
2013-02-25 03:42:00,23.0,19.0,30.08,WSW,240,0.0,1.0,83,0.00,,,0.00,,2013-02-25 08:42:00,
2013-02-25 03:52:00,23.0,19.0,30.08,WSW,240,0.0,1.0,84,0.00,,,0.00,,2013-02-25 08:52:00,
2013-02-25 04:01:00,23.0,19.0,30.07,WSW,240,0.0,1.0,84,0.00,,,0.00,,2013-02-25 09:01:00,
2013-02-25 04:12:00,23.0,19.0,30.07,WSW,240,0.0,1.0,84,0.00,,,0.00,,2013-02-25 09:12:00,
2013-02-25 04:21:00,23.0,19.0,30.08,WSW,240,0.0,1.0,84,0.00,,,0.00,,2013-02-25 09:21:00,
2013-02-25 04:32:00,23.0,19.0,30.06,WSW,240,0.0,1.0,83,0.00,,,0.00,,2013-02-25 09:32:00,
2013-02-25 04:42:00,23.0,19.0,30.06,WSW,240,0.0,1.0,83,0.00,,,0.00,,2013-02-25 09:42:00,
2013-02-25 04:52:00,24.0,20.0,30.07,WSW,240,0.0,1.0,83,0.00,,,0.00,,2013-02-25 09:52:00,
2013-02-25 05:01:00,24.0,19.0,30.07,WSW,240,0.0,0.0,82,0.00,,,0.00,,2013-02-25 10:01:00,
2013-02-25 05:11:00,24.0,19.0,30.07,WSW,240,0.0,0.0,82,0.00,,,0.00,,2013-02-25 10:11:00,
2013-02-25 05:21:00,24.0,19.0,30.08,WSW,240,0.0,1.0,82,0.00,,,0.00,,2013-02-25 10:21:00,
2013-02-25 05:32:00,24.0,19.0,30.10,WSW,240,0.0,1.0,82,0.00,,,0.00,,2013-02-25 10:32:00,
2013-02-25 05:42:00,24.0,19.0,30.10,WSW,240,0.0,1.0,82,0.00,,,0.00,,2013-02-25 10:42:00,
2013-02-25 05:52:00,24.0,19.0,30.10,WSW,240,0.0,1.0,82,0.00,,,0.00,,2013-02-25 10:52:00,
2013-02-25 06:01:00,24.0,19.0,30.10,WSW,240,0.0,1.0,82,0.00,,,0.00,,2013-02-25 11:01:00,
2013-02-25 06:11:00,24.0,19.0,30.10,WSW,240,0.0,1.0,82,0.00,,,0.00,,2013-02-25 11:11:00,
2013-02-25 06:22:00,24.0,19.0,30.11,WSW,240,0.0,2.0,82,0.00,,,0.00,,2013-02-25 11:22:00,
2013-02-25 06:32:00,24.0,19.0,30.11,WSW,240,0.0,1.0,81,0.00,,,0.00,,2013-02-25 11:32:00,
2013-02-25 06:42:00,24.0,19.0,30.11,WSW,240,0.0,1.0,81,0.00,,,0.00,,2013-02-25 11:42:00,
2013-02-25 06:52:00,24.0,19.0,30.11,WSW,240,0.0,0.0,81,0.00,,,0.00,,2013-02-25 11:52:00,
2013-02-25 07:02:00,24.0,19.0,30.11,WSW,240,0.0,0.0,81,0.00,,,0.00,,2013-02-25 12:02:00,
2013-02-25 07:11:00,24.0,19.0,30.11,WSW,240,0.0,0.0,81,0.00,,,0.00,,2013-02-25 12:11:00,
2013-02-25 07:22:00,24.0,19.0,30.11,WSW,240,0.0,0.0,80,0.00,,,0.00,,2013-02-25 12:22:00,
2013-02-25 07:32:00,25.0,20.0,30.11,WSW,240,0.0,1.0,80,0.00,,,0.00,,2013-02-25 12:32:00,
2013-02-25 07:42:00,25.0,20.0,30.11,WSW,240,0.0,1.0,80,0.00,,,0.00,,2013-02-25 12:42:00,
2013-02-25 07:56:00,25.0,20.0,30.12,WSW,240,0.0,0.0,81,0.00,,,0.00,,2013-02-25 12:56:00,
2013-02-25 08:02:00,25.0,20.0,30.13,WSW,240,0.0,0.0,80,0.00,,,0.00,,2013-02-25 13:02:00,
2013-02-25 08:12:00,25.0,20.0,30.13,WSW,240,0.0,0.0,80,0.00,,,0.00,,2013-02-25 13:12:00,
2013-02-25 08:23:00,25.0,19.0,30.14,WSW,240,0.0,0.0,79,0.00,,,0.00,,2013-02-25 13:23:00,
2013-02-25 08:32:00,25.0,19.0,30.13,WSW,240,0.0,0.0,79,0.00,,,0.00,,2013-02-25 13:32:00,
2013-02-25 08:42:00,25.0,19.0,30.13,WSW,240,0.0,0.0,79,0.00,,,0.00,,2013-02-25 13:42:00,
2013-02-25 08:52:00,25.0,19.0,30.13,WSW,240,0.0,0.0,79,0.00,,,0.00,,2013-02-25 13:52:00,
2013-02-25 09:03:00,26.0,21.0,30.14,NE,55,0.0,4.0,80,0.00,,,0.00,,2013-02-25 14:03:00,
2013-02-25 09:17:00,26.0,21.0,30.14,NE,55,0.0,4.0,80,0.00,,,0.00,,2013-02-25 14:17:00,
2013-02-25 09:32:00,28.0,21.0,30.14,NE,49,2.0,5.0,76,0.00,,,0.00,,2013-02-25 14:32:00,
2013-02-25 09:42:00,28.0,21.0,30.14,NE,49,2.0,5.0,76,0.00,,,0.00,,2013-02-25 14:42:00,
2013-02-25 09:52:00,29.0,22.0,30.13,NE,56,2.0,6.0,74,0.00,,,0.00,,2013-02-25 14:52:00,
2013-02-25 10:03:00,29.0,21.0,30.12,NE,48,2.0,9.0,73,0.00,,,0.00,,2013-02-25 15:03:00,
2013-02-25 10:11:00,29.0,21.0,30.12,NE,48,2.0,9.0,73,0.00,,,0.00,,2013-02-25 15:11:00,
2013-02-25 10:22:00,30.0,22.0,30.13,SSW,204,1.0,11.0,72,0.00,,,0.00,,2013-02-25 15:22:00,
2013-02-25 10:32:00,31.0,22.0,30.14,NE,44,2.0,4.0,70,0.00,,,0.00,,2013-02-25 15:32:00,
2013-02-25 10:42:00,31.0,22.0,30.14,NE,44,2.0,4.0,70,0.00,,,0.00,,2013-02-25 15:42:00,
2013-02-25 10:52:00,31.0,22.0,30.14,NE,55,2.0,9.0,68,0.00,,,0.00,,2013-02-25 15:52:00,
2013-02-25 11:02:00,32.0,22.0,30.14,ENE,68,2.0,7.0,65,0.00,,,0.00,,2013-02-25 16:02:00,
2013-02-25 11:12:00,32.0,22.0,30.14,ENE,68,2.0,7.0,65,0.00,,,0.00,,2013-02-25 16:12:00,
2013-02-25 11:22:00,33.0,23.0,30.14,SE,124,1.0,7.0,65,0.00,,,0.00,,2013-02-25 16:22:00,
2013-02-25 11:32:00,33.0,22.0,30.13,NE,56,0.0,5.0,64,0.00,,,0.00,,2013-02-25 16:32:00,
2013-02-25 11:42:00,33.0,22.0,30.13,NE,56,0.0,5.0,64,0.00,,,0.00,,2013-02-25 16:42:00,
2013-02-25 11:52:00,34.0,22.0,30.12,NE,45,4.0,6.0,62,0.00,,,0.00,,2013-02-25 16:52:00,
2013-02-25 12:01:00,34.0,23.0,30.11,NNE,33,4.0,8.0,63,0.00,,,0.00,,2013-02-25 17:01:00,
2013-02-25 12:11:00,34.0,23.0,30.11,NNE,33,4.0,8.0,63,0.00,,,0.00,,2013-02-25 17:11:00,
2013-02-25 12:21:00,35.0,23.0,30.12,ENE,63,3.0,8.0,61,0.00,,,0.00,,2013-02-25 17:21:00,
2013-02-25 12:32:00,35.0,24.0,30.11,ENE,74,3.0,10.0,63,0.00,,,0.00,,2013-02-25 17:32:00,
2013-02-25 12:42:00,35.0,24.0,30.11,ENE,74,3.0,10.0,63,0.00,,,0.00,,2013-02-25 17:42:00,
2013-02-25 12:52:00,35.0,23.0,30.09,East,86,1.0,7.0,60,0.00,,,0.00,,2013-02-25 17:52:00,
2013-02-25 13:02:00,36.0,23.0,30.09,East,92,3.0,10.0,60,0.00,,,0.00,,2013-02-25 18:02:00,
2013-02-25 13:12:00,36.0,23.0,30.09,East,92,3.0,10.0,60,0.00,,,0.00,,2013-02-25 18:12:00,
2013-02-25 13:21:00,36.0,22.0,30.08,East,84,2.0,10.0,57,0.00,,,0.00,,2013-02-25 18:21:00,
2013-02-25 13:33:00,37.0,24.0,30.08,NE,43,3.0,9.0,59,0.00,,,0.00,,2013-02-25 18:33:00,
2013-02-25 13:42:00,37.0,24.0,30.08,NE,43,3.0,9.0,59,0.00,,,0.00,,2013-02-25 18:42:00,
2013-02-25 13:52:00,37.0,23.0,30.06,North,5,3.0,12.0,57,0.00,,,0.00,,2013-02-25 18:52:00,
2013-02-25 14:01:00,38.0,24.0,30.07,East,84,3.0,10.0,56,0.00,,,0.00,,2013-02-25 19:01:00,
2013-02-25 14:11:00,38.0,24.0,30.07,East,84,3.0,10.0,56,0.00,,,0.00,,2013-02-25 19:11:00,
2013-02-25 14:22:00,39.0,25.0,30.06,ENE,59,7.0,13.0,57,0.00,,,0.00,,2013-02-25 19:22:00,
2013-02-25 14:32:00,40.0,25.0,30.05,North,11,3.0,7.0,54,0.00,,,0.00,,2013-02-25 19:32:00,
2013-02-25 14:42:00,40.0,25.0,30.05,North,11,3.0,7.0,54,0.00,,,0.00,,2013-02-25 19:42:00,
2013-02-25 14:52:00,40.0,24.0,30.05,NNE,23,4.0,12.0,53,0.00,,,0.00,,2013-02-25 19:52:00,
2013-02-25 15:01:00,41.0,24.0,30.05,SE,130,3.0,5.0,51,0.00,,,0.00,,2013-02-25 20:01:00,
2013-02-25 15:11:00,41.0,24.0,30.05,SE,130,3.0,5.0,51,0.00,,,0.00,,2013-02-25 20:11:00,
2013-02-25 15:21:00,42.0,24.0,30.05,NE,45,3.0,10.0,49,0.00,,,0.00,,2013-02-25 20:21:00,
2013-02-25 15:32:00,42.0,24.0,30.04,SSW,207,0.0,6.0,48,0.00,,,0.00,,2013-02-25 20:32:00,
2013-02-25 15:42:00,42.0,24.0,30.04,SSW,207,0.0,6.0,48,0.00,,,0.00,,2013-02-25 20:42:00,
2013-02-25 15:52:00,42.0,24.0,30.04,NE,55,1.0,6.0,49,0.00,,,0.00,,2013-02-25 20:52:00,
2013-02-25 16:01:00,42.0,24.0,30.03,ENE,58,1.0,11.0,49,0.00,,,0.00,,2013-02-25 21:01:00,
2013-02-25 16:11:00,42.0,24.0,30.03,ENE,58,1.0,11.0,49,0.00,,,0.00,,2013-02-25 21:11:00,
2013-02-25 16:21:00,43.0,25.0,30.03,ENE,61,3.0,9.0,49,0.00,,,0.00,,2013-02-25 21:21:00,
2013-02-25 16:32:00,43.0,23.0,30.03,East,89,3.0,9.0,45,0.00,,,0.00,,2013-02-25 21:32:00,
2013-02-25 16:42:00,43.0,23.0,30.03,East,89,3.0,9.0,45,0.00,,,0.00,,2013-02-25 21:42:00,
2013-02-25 16:52:00,43.0,24.0,30.06,NE,34,1.0,5.0,46,0.00,,,0.00,,2013-02-25 21:52:00,
2013-02-25 17:01:00,43.0,24.0,30.05,East,94,2.0,5.0,46,0.00,,,0.00,,2013-02-25 22:01:00,
2013-02-25 17:11:00,43.0,24.0,30.05,East,94,2.0,5.0,46,0.00,,,0.00,,2013-02-25 22:11:00,
2013-02-25 17:21:00,42.0,23.0,30.04,ENE,68,1.0,10.0,47,0.00,,,0.00,,2013-02-25 22:21:00,
2013-02-25 17:32:00,42.0,23.0,30.04,ENE,71,2.0,9.0,47,0.00,,,0.00,,2013-02-25 22:32:00,
2013-02-25 17:42:00,42.0,23.0,30.04,ENE,71,2.0,9.0,47,0.00,,,0.00,,2013-02-25 22:42:00,
2013-02-25 17:52:00,42.0,23.0,30.04,ENE,67,2.0,6.0,47,0.00,,,0.00,,2013-02-25 22:52:00,
2013-02-25 18:01:00,41.0,23.0,30.04,East,86,1.0,6.0,48,0.00,,,0.00,,2013-02-25 23:01:00,
2013-02-25 18:11:00,41.0,23.0,30.04,East,86,1.0,6.0,48,0.00,,,0.00,,2013-02-25 23:11:00,
2013-02-25 18:22:00,40.0,23.0,30.05,East,83,0.0,4.0,50,0.00,,,0.00,,2013-02-25 23:22:00,
2013-02-25 18:32:00,39.0,22.0,30.05,ENE,76,0.0,5.0,51,0.00,,,0.00,,2013-02-25 23:32:00,
2013-02-25 18:42:00,39.0,22.0,30.05,ENE,76,0.0,5.0,51,0.00,,,0.00,,2013-02-25 23:42:00,
2013-02-25 18:52:00,39.0,23.0,30.06,East,80,0.0,0.0,52,0.00,,,0.00,,2013-02-25 23:52:00,
2013-02-25 19:01:00,38.0,22.0,30.06,East,82,0.0,1.0,52,0.00,,,0.00,,2013-02-26 00:01:00,
2013-02-25 19:12:00,38.0,22.0,30.06,East,82,0.0,1.0,52,0.00,,,0.00,,2013-02-26 00:12:00,
2013-02-25 19:22:00,37.0,21.0,30.05,East,92,0.0,6.0,53,0.00,,,0.00,,2013-02-26 00:22:00,
2013-02-25 19:32:00,37.0,21.0,30.05,SE,124,1.0,4.0,53,0.00,,,0.00,,2013-02-26 00:32:00,
2013-02-25 19:42:00,37.0,21.0,30.05,SE,124,1.0,4.0,53,0.00,,,0.00,,2013-02-26 00:42:00,
2013-02-25 19:52:00,36.0,21.0,30.04,NE,53,0.0,4.0,53,0.00,,,0.00,,2013-02-26 00:52:00,
2013-02-25 20:02:00,36.0,21.0,30.05,SSE,151,0.0,6.0,53,0.00,,,0.00,,2013-02-26 01:02:00,
2013-02-25 20:11:00,36.0,21.0,30.05,SSE,151,0.0,6.0,53,0.00,,,0.00,,2013-02-26 01:11:00,
2013-02-25 20:21:00,36.0,21.0,30.05,SW,228,2.0,4.0,54,0.00,,,0.00,,2013-02-26 01:21:00,
2013-02-25 20:32:00,35.0,20.0,30.04,NE,38,2.0,6.0,54,0.00,,,0.00,,2013-02-26 01:32:00,
2013-02-25 20:42:00,35.0,20.0,30.04,NE,38,2.0,6.0,54,0.00,,,0.00,,2013-02-26 01:42:00,
2013-02-25 20:52:00,35.0,21.0,30.03,NNE,17,2.0,6.0,56,0.00,,,0.00,,2013-02-26 01:52:00,
2013-02-25 21:01:00,35.0,21.0,30.02,SSE,153,3.0,7.0,56,0.00,,,0.00,,2013-02-26 02:01:00,
2013-02-25 21:11:00,35.0,21.0,30.02,SSE,153,3.0,7.0,56,0.00,,,0.00,,2013-02-26 02:11:00,
2013-02-25 21:21:00,35.0,21.0,30.02,SW,225,0.0,9.0,57,0.00,,,0.00,,2013-02-26 02:21:00,
2013-02-25 21:32:00,34.0,20.0,30.01,NW,325,2.0,7.0,57,0.00,,,0.00,,2013-02-26 02:32:00,
2013-02-25 21:42:00,34.0,20.0,30.01,NW,325,2.0,7.0,57,0.00,,,0.00,,2013-02-26 02:42:00,
2013-02-25 21:52:00,34.0,20.0,30.00,NE,41,3.0,5.0,56,0.00,,,0.00,,2013-02-26 02:52:00,
2013-02-25 22:02:00,34.0,20.0,29.98,South,171,3.0,7.0,57,0.00,,,0.00,,2013-02-26 03:02:00,
2013-02-25 22:11:00,34.0,20.0,29.98,South,171,3.0,7.0,57,0.00,,,0.00,,2013-02-26 03:11:00,
2013-02-25 22:22:00,34.0,20.0,29.99,South,188,3.0,10.0,57,0.00,,,0.00,,2013-02-26 03:22:00,
2013-02-25 22:32:00,34.0,21.0,30.00,SW,225,2.0,8.0,58,0.00,,,0.00,,2013-02-26 03:32:00,
2013-02-25 22:42:00,34.0,21.0,30.00,SW,225,2.0,8.0,58,0.00,,,0.00,,2013-02-26 03:42:00,
2013-02-25 22:52:00,34.0,20.0,30.01,South,184,2.0,9.0,56,0.00,,,0.00,,2013-02-26 03:52:00,
2013-02-25 23:01:00,34.0,20.0,30.01,SSW,204,3.0,7.0,56,0.00,,,0.00,,2013-02-26 04:01:00,
2013-02-25 23:11:00,34.0,20.0,30.01,SSW,204,3.0,7.0,56,0.00,,,0.00,,2013-02-26 04:11:00,
2013-02-25 23:22:00,34.0,20.0,30.00,NNW,339,4.0,8.0,57,0.00,,,0.00,,2013-02-26 04:22:00,
2013-02-25 23:32:00,34.0,20.0,30.00,South,183,3.0,6.0,57,0.00,,,0.00,,2013-02-26 04:32:00,
2013-02-25 23:42:00,34.0,20.0,30.00,South,183,3.0,6.0,57,0.00,,,0.00,,2013-02-26 04:42:00,
2013-02-25 23:52:00,33.0,20.0,30.00,SE,144,2.0,7.0,58,0.00,,,0.00,,2013-02-26 04:52:00,